TimeGMT,TemperatureF,Dew PointF,Humidity,Sea Level PressureIn,VisibilityMPH,Wind Direction,Wind SpeedMPH,Gust SpeedMPH,PrecipitationIn,Events,Conditions,WindDirDegrees,DateUTC
5:50 AM,50.0,48.2,94,30.30,6.2,East,3.5,-,N/A,,Mostly Cloudy,90,2012-11-14 05:50:00
6:20 AM,50.0,48.2,94,30.30,6.2,ESE,6.9,-,N/A,,Mostly Cloudy,110,2012-11-14 06:20:00
6:50 AM,50.0,48.2,94,30.30,6.2,ESE,4.6,-,N/A,,Mostly Cloudy,110,2012-11-14 06:50:00
7:20 AM,50.0,48.2,94,30.30,5.6,East,3.5,-,N/A,,Mostly Cloudy,100,2012-11-14 07:20:00
7:50 AM,50.0,46.4,87,30.30,5.6,ESE,6.9,-,N/A,,Mostly Cloudy,110,2012-11-14 07:50:00
8:20 AM,50.0,46.4,87,30.33,6.2,ESE,9.2,-,N/A,,Mostly Cloudy,120,2012-11-14 08:20:00
8:50 AM,50.0,46.4,87,30.33,6.2,ESE,6.9,-,N/A,,Mostly Cloudy,110,2012-11-14 08:50:00
9:20 AM,50.0,46.4,87,30.33,6.2,ESE,6.9,-,N/A,,Mostly Cloudy,110,2012-11-14 09:20:00
9:50 AM,50.0,46.4,87,30.33,6.2,East,4.6,-,N/A,,Mostly Cloudy,100,2012-11-14 09:50:00
10:20 AM,50.0,44.6,82,30.33,6.2,ESE,8.1,-,N/A,,Scattered Clouds,110,2012-11-14 10:20:00
10:50 AM,50.0,44.6,82,30.30,6.2,ESE,8.1,-,N/A,,Scattered Clouds,110,2012-11-14 10:50:00
11:20 AM,51.8,42.8,71,30.30,6.2,SE,6.9,-,N/A,,Partly Cloudy,130,2012-11-14 11:20:00
11:50 AM,51.8,42.8,71,30.27,6.2,East,6.9,-,N/A,,Partly Cloudy,90,2012-11-14 11:50:00
12:20 PM,53.6,42.8,67,30.27,6.2,East,6.9,-,N/A,,Partly Cloudy,100,2012-11-14 12:20:00
12:50 PM,53.6,42.8,67,30.27,6.2,East,6.9,-,N/A,,Partly Cloudy,100,2012-11-14 12:50:00
1:20 PM,53.6,41.0,62,30.27,6.2,East,5.8,-,N/A,,Partly Cloudy,100,2012-11-14 13:20:00
1:50 PM,53.6,39.2,58,30.24,-9999.0,East,4.6,-,N/A,,Clear,80,2012-11-14 13:50:00
2:20 PM,55.4,41.0,58,30.24,-9999.0,East,5.8,-,N/A,,Clear,80,2012-11-14 14:20:00
2:50 PM,53.6,41.0,62,30.24,-9999.0,ENE,5.8,-,N/A,,Clear,70,2012-11-14 14:50:00
3:20 PM,53.6,39.2,58,30.24,-9999.0,East,5.8,-,N/A,,Clear,80,2012-11-14 15:20:00
3:50 PM,51.8,39.2,62,30.24,-9999.0,East,3.5,-,N/A,,Clear,80,2012-11-14 15:50:00
4:20 PM,50.0,39.2,66,30.24,-9999.0,East,2.3,-,N/A,,Clear,90,2012-11-14 16:20:00
4:50 PM,46.4,39.2,76,30.24,-9999.0,East,2.3,-,N/A,,Clear,90,2012-11-14 16:50:00
5:20 PM,44.6,39.2,81,30.24,-9999.0,Calm,Calm,-,N/A,,Clear,0,2012-11-14 17:20:00
5:50 PM,42.8,41.0,93,30.27,-9999.0,Calm,Calm,-,N/A,,Clear,0,2012-11-14 17:50:00
6:20 PM,39.2,35.6,87,30.27,-9999.0,Variable,1.2,-,N/A,,Clear,0,2012-11-14 18:20:00
6:50 PM,39.2,37.4,93,30.27,-9999.0,Calm,Calm,-,N/A,,Clear,0,2012-11-14 18:50:00
7:20 PM,39.2,37.4,93,30.27,-9999.0,Calm,Calm,-,N/A,,Clear,0,2012-11-14 19:20:00
7:50 PM,37.4,35.6,93,30.24,6.2,NNE,1.2,-,N/A,Fog,Shallow Fog,20,2012-11-14 19:50:00
8:50 PM,35.6,35.6,100,30.24,6.2,NE,2.3,-,N/A,Fog,Shallow Fog,50,2012-11-14 20:50:00
9:20 PM,35.6,35.6,100,30.27,6.2,North,2.3,-,N/A,Fog,Shallow Fog,350,2012-11-14 21:20:00
9:50 PM,35.6,35.6,100,30.27,6.2,North,3.5,-,N/A,Fog,Shallow Fog,10,2012-11-14 21:50:00
10:20 PM,37.4,35.6,93,30.27,6.2,Calm,Calm,-,N/A,Fog,Shallow Fog,0,2012-11-14 22:20:00